Location: Gombori
(14.9797°N, 2.9419°W)
Time: 00:26:38
(UTC+00:00)

CZ-4B R/B - Pass Details

Date: 29 July 2021
Orbit: 382 x 451 km, 97.6° (Epoch: 20 September)

Event Time Altitude Azimuth Distance (km) Brightness Sun altitude
Rises 19:21:21 0° 351° (N) 2,432 5.6 -9.6°
Reaches altitude 10° 19:23:43 10° 334° (NNW) 1,551 4.9 -10.1°
Maximum altitude 19:26:15 21° 284° (WNW) 1,046 4.4 -10.7°
Drops below altitude 10° 19:28:46 10° 234° (SW) 1,523 4.5 -11.2°
Sets 19:31:04 0° 217° (SW) 2,373 5.3 -11.8°
